JST411 YBCG-YSSY

Flight info

Callsign JST411
Flight time 1h 16m
Altitude 34000
Route GOMOL Q16 APAGI H91 IGDAM H652 BOREE
Aircraft A320/M-SDE3FGHIRWY/LB1

Departure

Time 2026-05-08 03:11
Airport Gold Coast Airport (YBCG)

Arrival

Time 2026-05-08 04:27
Airport Sydney Kingsford Smith International Airport (YSSY)
Time Latitude Longitude Altitude Speed Heading
2026-05-08 02:53 -28.16719 153.51208 26 ft 0 kts 60°
2026-05-08 03:04 -28.16722 153.51202 26 ft 4 kts 61°
2026-05-08 03:04 -28.16735 153.51175 30 ft 4 kts 64°
2026-05-08 03:05 -28.16746 153.51147 30 ft 4 kts 70°
2026-05-08 03:05 -28.16753 153.51118 27 ft 4 kts 86°
2026-05-08 03:05 -28.16750 153.51092 26 ft 4 kts 141°
2026-05-08 03:05 -28.16743 153.51086 31 ft 0 kts 150°
2026-05-08 03:07 -28.16748 153.51090 29 ft 2 kts 150°
2026-05-08 03:08 -28.16766 153.51101 29 ft 4 kts 150°
2026-05-08 03:08 -28.16798 153.51121 27 ft 8 kts 150°
2026-05-08 03:08 -28.16862 153.51162 29 ft 12 kts 150°
2026-05-08 03:08 -28.16942 153.51213 28 ft 14 kts 150°
2026-05-08 03:09 -28.17036 153.51266 26 ft 16 kts 171°
2026-05-08 03:09 -28.17143 153.51238 27 ft 17 kts 165°
2026-05-08 03:09 -28.17253 153.51305 26 ft 19 kts 150°
2026-05-08 03:09 -28.17371 153.51379 27 ft 18 kts 158°
2026-05-08 03:10 -28.17455 153.51297 28 ft 18 kts 240°
2026-05-08 03:10 -28.17413 153.51191 26 ft 19 kts 329°
2026-05-08 03:10 -28.17226 153.51074 27 ft 59 kts 330°
2026-05-08 03:10 -28.16674 153.50723 29 ft 119 kts 330°
2026-05-08 03:11 -28.15843 153.50191 213 ft 147 kts 332°
2026-05-08 03:11 -28.14974 153.49601 851 ft 145 kts 330°
2026-05-08 03:11 -28.14110 153.48992 1384 ft 154 kts 327°
2026-05-08 03:11 -28.13076 153.48252 1466 ft 191 kts 328°
2026-05-08 03:12 -28.11903 153.47468 1943 ft 205 kts 329°
2026-05-08 03:12 -28.10597 153.46614 2301 ft 228 kts 329°
2026-05-08 03:12 -28.09115 153.45862 2945 ft 242 kts 347°
2026-05-08 03:12 -28.07361 153.45746 3470 ft 262 kts 360°
2026-05-08 03:13 -28.05512 153.45835 4261 ft 270 kts
2026-05-08 03:13 -28.03610 153.45947 5089 ft 277 kts
2026-05-08 03:13 -28.01682 153.46106 6045 ft 272 kts
2026-05-08 03:13 -27.99914 153.46801 7116 ft 270 kts 30°
2026-05-08 03:14 -27.98513 153.48208 7915 ft 272 kts 56°
2026-05-08 03:14 -27.97728 153.50144 8683 ft 272 kts 81°
2026-05-08 03:14 -27.97683 153.52262 9436 ft 270 kts 105°
2026-05-08 03:14 -27.98358 153.54217 10150 ft 267 kts 129°
2026-05-08 03:15 -27.99620 153.55716 10808 ft 262 kts 152°
2026-05-08 03:15 -28.01264 153.56546 11481 ft 258 kts 173°
2026-05-08 03:15 -28.03039 153.56803 12160 ft 259 kts 179°
2026-05-08 03:15 -28.04842 153.57019 12850 ft 263 kts 179°
2026-05-08 03:16 -28.06673 153.57240 13535 ft 267 kts 179°
2026-05-08 03:16 -28.08530 153.57463 14178 ft 271 kts 179°
2026-05-08 03:16 -28.10415 153.57730 14785 ft 277 kts 173°
2026-05-08 03:16 -28.12306 153.58417 15139 ft 298 kts 162°
2026-05-08 03:17 -28.14283 153.59368 15280 ft 320 kts 161°
2026-05-08 03:17 -28.16403 153.60399 15406 ft 342 kts 161°
2026-05-08 03:17 -28.18648 153.61502 15594 ft 359 kts 161°
2026-05-08 03:17 -28.20995 153.62514 16037 ft 361 kts 172°
2026-05-08 03:18 -28.23475 153.62650 16563 ft 355 kts 193°
2026-05-08 03:18 -28.25783 153.61759 17139 ft 349 kts 214°
2026-05-08 03:18 -28.27620 153.60022 17742 ft 344 kts 233°
2026-05-08 03:18 -28.28970 153.57784 18354 ft 344 kts 239°
2026-05-08 03:19 -28.30254 153.55527 18889 ft 346 kts 239°
2026-05-08 03:19 -28.31559 153.53223 19438 ft 348 kts 240°
2026-05-08 03:19 -28.32874 153.50902 19996 ft 350 kts 240°
2026-05-08 03:19 -28.34200 153.48566 20550 ft 352 kts 240°
2026-05-08 03:20 -28.35533 153.46222 21081 ft 354 kts 240°
2026-05-08 03:20 -28.36874 153.43864 21594 ft 356 kts 241°
2026-05-08 03:20 -28.38220 153.41498 22087 ft 358 kts 241°
2026-05-08 03:20 -28.39577 153.39112 22575 ft 361 kts 241°
2026-05-08 03:21 -28.40940 153.36710 23069 ft 363 kts 241°
2026-05-08 03:21 -28.42311 153.34294 23556 ft 365 kts 242°
2026-05-08 03:21 -28.43692 153.31859 23988 ft 367 kts 242°
2026-05-08 03:21 -28.45076 153.29417 24414 ft 368 kts 242°
2026-05-08 03:22 -28.46463 153.26970 24885 ft 368 kts 242°
2026-05-08 03:22 -28.47846 153.24525 25380 ft 367 kts 243°
2026-05-08 03:22 -28.49229 153.22081 25841 ft 367 kts 243°
2026-05-08 03:22 -28.50612 153.19636 26286 ft 368 kts 244°
2026-05-08 03:23 -28.51995 153.17191 26749 ft 368 kts 244°
2026-05-08 03:23 -28.53366 153.14766 27181 ft 368 kts 244°
2026-05-08 03:23 -28.54750 153.12312 27593 ft 369 kts 245°
2026-05-08 03:23 -28.56136 153.09853 28017 ft 370 kts 245°
2026-05-08 03:24 -28.57527 153.07386 28417 ft 371 kts 245°
2026-05-08 03:24 -28.58920 153.04917 28835 ft 371 kts 245°
2026-05-08 03:24 -28.60314 153.02442 29246 ft 372 kts 246°
2026-05-08 03:24 -28.61711 152.99959 29707 ft 373 kts 246°
2026-05-08 03:25 -28.63110 152.97470 30144 ft 373 kts 246°
2026-05-08 03:25 -28.64507 152.94980 30532 ft 374 kts 246°
2026-05-08 03:25 -28.65918 152.92458 30764 ft 379 kts 245°
2026-05-08 03:25 -28.67342 152.89911 30982 ft 383 kts 245°
2026-05-08 03:26 -28.68778 152.87347 31313 ft 384 kts 245°
2026-05-08 03:26 -28.70215 152.84788 31774 ft 382 kts 246°
2026-05-08 03:26 -28.71643 152.82248 32258 ft 379 kts 246°
2026-05-08 03:26 -28.73064 152.79721 32740 ft 377 kts 246°
2026-05-08 03:27 -28.74456 152.77243 33216 ft 375 kts 246°
2026-05-08 03:27 -28.75852 152.74749 33709 ft 373 kts 247°
2026-05-08 03:27 -28.77242 152.72263 34032 ft 372 kts 247°
2026-05-08 03:28 -28.80006 152.67317 34098 ft 368 kts 247°
2026-05-08 03:28 -28.82748 152.62390 34085 ft 367 kts 247°
2026-05-08 03:29 -28.86192 152.57913 34093 ft 394 kts 228°
2026-05-08 03:29 -28.88606 152.56296 34089 ft 408 kts 220°
2026-05-08 03:29 -28.91128 152.54803 34089 ft 408 kts 220°
2026-05-08 03:30 -28.98709 152.50320 34092 ft 410 kts 220°
2026-05-08 03:31 -29.08811 152.44302 34086 ft 410 kts 220°
2026-05-08 03:32 -29.16409 152.39763 34087 ft 410 kts 220°
2026-05-08 03:32 -29.21465 152.36738 34092 ft 410 kts 220°
2026-05-08 03:33 -29.26520 152.33708 34083 ft 410 kts 220°
2026-05-08 03:33 -29.31575 152.30681 34079 ft 410 kts 220°
2026-05-08 03:34 -29.36630 152.27646 34085 ft 410 kts 220°
2026-05-08 03:34 -29.41685 152.24610 34087 ft 410 kts 220°
2026-05-08 03:35 -29.46749 152.21566 34083 ft 409 kts 220°
2026-05-08 03:35 -29.51788 152.18528 34110 ft 409 kts 220°
2026-05-08 03:36 -29.56825 152.15489 34088 ft 409 kts 220°
2026-05-08 03:36 -29.61869 152.12445 34085 ft 410 kts 220°
2026-05-08 03:37 -29.66926 152.09395 34081 ft 410 kts 220°
2026-05-08 03:37 -29.72302 152.06880 34081 ft 433 kts 205°
2026-05-08 03:38 -29.78157 152.05359 34081 ft 433 kts 205°
2026-05-08 03:38 -29.84042 152.03849 34083 ft 433 kts 205°
2026-05-08 03:39 -29.89927 152.02317 34088 ft 433 kts 205°
2026-05-08 03:39 -29.95807 152.00773 34086 ft 433 kts 205°
2026-05-08 03:40 -30.00682 151.99490 34093 ft 432 kts 205°
2026-05-08 03:40 -30.06423 151.97996 34093 ft 430 kts 205°
2026-05-08 03:41 -30.10248 151.96963 34097 ft 430 kts 205°
2026-05-08 03:41 -30.16086 151.95431 34095 ft 430 kts 205°
2026-05-08 03:42 -30.21938 151.93915 34099 ft 430 kts 205°
2026-05-08 03:42 -30.27768 151.92378 34111 ft 431 kts 205°
2026-05-08 03:43 -30.33517 151.90615 34109 ft 418 kts 213°
2026-05-08 03:43 -30.38901 151.88104 34111 ft 418 kts 213°
2026-05-08 03:44 -30.44294 151.85604 34126 ft 417 kts 213°
2026-05-08 03:44 -30.49675 151.83105 34114 ft 416 kts 212°
2026-05-08 03:45 -30.55043 151.80603 34122 ft 415 kts 213°
2026-05-08 03:45 -30.60404 151.78101 34121 ft 415 kts 213°
2026-05-08 03:46 -30.65731 151.75613 34118 ft 415 kts 213°
2026-05-08 03:46 -30.71081 151.73106 34120 ft 413 kts 212°
2026-05-08 03:47 -30.76428 151.70593 34118 ft 412 kts 212°
2026-05-08 03:47 -30.81720 151.68115 34138 ft 412 kts 212°
2026-05-08 03:48 -30.87041 151.65624 34131 ft 412 kts 212°
2026-05-08 03:48 -30.92385 151.63115 34140 ft 411 kts 211°
2026-05-08 03:49 -30.97644 151.60642 34138 ft 410 kts 211°
2026-05-08 03:49 -31.02963 151.58129 34141 ft 410 kts 211°
2026-05-08 03:50 -31.08217 151.55655 34159 ft 410 kts 211°
2026-05-08 03:50 -31.13502 151.53155 34169 ft 410 kts 210°
2026-05-08 03:51 -31.18841 151.50632 34158 ft 412 kts 210°
2026-05-08 03:51 -31.24197 151.48099 34154 ft 412 kts 210°
2026-05-08 03:52 -31.29504 151.45572 34151 ft 412 kts 210°
2026-05-08 03:52 -31.34819 151.43043 34182 ft 412 kts 209°
2026-05-08 03:53 -31.40114 151.40544 34157 ft 414 kts 208°
2026-05-08 03:53 -31.45507 151.38127 34152 ft 415 kts 208°
2026-05-08 03:54 -31.50915 151.35753 34159 ft 415 kts 208°
2026-05-08 03:54 -31.56309 151.33359 34160 ft 415 kts 208°
2026-05-08 03:55 -31.61720 151.30932 34157 ft 416 kts 207°
2026-05-08 03:55 -31.67146 151.28495 34157 ft 417 kts 207°
2026-05-08 03:56 -31.72572 151.26057 34154 ft 417 kts 207°
2026-05-08 03:56 -31.77955 151.23633 34165 ft 417 kts 207°
2026-05-08 03:57 -31.83382 151.21200 34153 ft 416 kts 207°
2026-05-08 03:57 -31.88799 151.18752 34147 ft 416 kts 207°
2026-05-08 03:58 -31.94207 151.16305 34145 ft 416 kts 207°
2026-05-08 03:58 -31.99632 151.13868 34171 ft 417 kts 207°
2026-05-08 03:59 -32.05031 151.11462 34136 ft 417 kts 207°
2026-05-08 03:59 -32.10435 151.09048 33958 ft 409 kts 207°
2026-05-08 03:59 -32.13069 151.07874 33679 ft 400 kts 207°
2026-05-08 04:00 -32.15653 151.06716 33402 ft 394 kts 207°
2026-05-08 04:00 -32.18208 151.05564 33139 ft 391 kts 207°
2026-05-08 04:00 -32.20733 151.04423 32878 ft 388 kts 207°
2026-05-08 04:00 -32.23252 151.03283 32612 ft 385 kts 207°
2026-05-08 04:01 -32.25757 151.02149 32352 ft 383 kts 206°
2026-05-08 04:01 -32.28212 151.01041 32095 ft 381 kts 206°
2026-05-08 04:01 -32.30684 150.99926 31835 ft 379 kts 206°
2026-05-08 04:01 -32.33142 150.98817 31583 ft 376 kts 206°
2026-05-08 04:02 -32.35578 150.97716 31339 ft 374 kts 206°
2026-05-08 04:02 -32.38005 150.96616 31091 ft 372 kts 206°
2026-05-08 04:02 -32.40410 150.95527 30837 ft 369 kts 206°
2026-05-08 04:02 -32.42808 150.94441 30595 ft 367 kts 206°
2026-05-08 04:03 -32.45187 150.93361 30350 ft 365 kts 206°
2026-05-08 04:03 -32.50049 150.91705 29745 ft 366 kts 191°
2026-05-08 04:03 -32.52581 150.91720 29326 ft 371 kts 179°
2026-05-08 04:04 -32.55141 150.92163 28909 ft 370 kts 178°
2026-05-08 04:04 -32.57685 150.92621 28498 ft 368 kts 178°
2026-05-08 04:04 -32.60216 150.93077 28082 ft 366 kts 178°
2026-05-08 04:04 -32.62730 150.93527 27670 ft 364 kts 178°
2026-05-08 04:05 -32.65228 150.93970 27261 ft 362 kts 178°
2026-05-08 04:05 -32.67713 150.94407 26835 ft 360 kts 178°
2026-05-08 04:05 -32.70191 150.94842 26403 ft 359 kts 178°
2026-05-08 04:05 -32.72621 150.95270 25987 ft 357 kts 178°
2026-05-08 04:06 -32.75118 150.95712 25534 ft 357 kts 178°
2026-05-08 04:06 -32.77569 150.96146 25090 ft 356 kts 178°
2026-05-08 04:06 -32.80018 150.96579 24652 ft 354 kts 178°
2026-05-08 04:06 -32.82382 150.97004 24234 ft 342 kts 177°
2026-05-08 04:07 -32.84738 150.97427 23819 ft 341 kts 177°
2026-05-08 04:07 -32.87082 150.97846 23344 ft 340 kts 178°
2026-05-08 04:07 -32.89415 150.98263 22910 ft 338 kts 178°
2026-05-08 04:07 -32.91731 150.98674 22487 ft 336 kts 178°
2026-05-08 04:08 -32.94038 150.99079 22052 ft 334 kts 178°
2026-05-08 04:08 -32.96339 150.99483 21618 ft 333 kts 178°
2026-05-08 04:08 -32.98628 150.99891 21203 ft 331 kts 178°
2026-05-08 04:08 -33.00903 151.00300 20774 ft 330 kts 178°
2026-05-08 04:09 -33.03172 151.00706 20351 ft 329 kts 178°
2026-05-08 04:09 -33.05408 151.01106 19931 ft 328 kts 178°
2026-05-08 04:09 -33.07667 151.01511 19501 ft 328 kts 178°
2026-05-08 04:09 -33.09928 151.01916 19074 ft 327 kts 178°
2026-05-08 04:10 -33.12187 151.02322 18639 ft 327 kts 178°
2026-05-08 04:10 -33.14430 151.02725 18187 ft 326 kts 178°
2026-05-08 04:10 -33.16676 151.03129 17745 ft 324 kts 178°
2026-05-08 04:10 -33.18883 151.03529 17316 ft 317 kts 178°
2026-05-08 04:11 -33.21017 151.03915 16903 ft 310 kts 178°
2026-05-08 04:11 -33.23126 151.04297 16514 ft 302 kts 178°
2026-05-08 04:11 -33.25196 151.04675 16106 ft 297 kts 178°
2026-05-08 04:11 -33.27218 151.05058 15717 ft 291 kts 178°
2026-05-08 04:12 -33.29199 151.05441 15342 ft 285 kts 178°
2026-05-08 04:12 -33.31125 151.05817 14974 ft 280 kts 178°
2026-05-08 04:12 -33.33047 151.06190 14612 ft 279 kts 178°
2026-05-08 04:12 -33.34965 151.06554 14243 ft 279 kts 178°
2026-05-08 04:13 -33.36885 151.06921 13866 ft 280 kts 178°
2026-05-08 04:13 -33.38815 151.07292 13467 ft 281 kts 178°
2026-05-08 04:13 -33.40749 151.07658 13088 ft 281 kts 178°
2026-05-08 04:13 -33.42679 151.08026 12715 ft 280 kts 178°
2026-05-08 04:14 -33.44576 151.08485 12336 ft 286 kts 167°
2026-05-08 04:14 -33.46304 151.09778 11961 ft 302 kts 146°
2026-05-08 04:14 -33.47822 151.11538 11580 ft 304 kts 143°
2026-05-08 04:14 -33.49308 151.13324 11187 ft 300 kts 142°
2026-05-08 04:15 -33.50775 151.15086 10743 ft 295 kts 142°
2026-05-08 04:15 -33.52224 151.16803 10314 ft 292 kts 142°
2026-05-08 04:15 -33.53655 151.18478 9895 ft 290 kts 142°
2026-05-08 04:15 -33.55100 151.20151 9511 ft 288 kts 142°
2026-05-08 04:16 -33.56547 151.21810 9139 ft 288 kts 142°
2026-05-08 04:16 -33.58005 151.23467 8735 ft 290 kts 142°
2026-05-08 04:16 -33.59482 151.25132 8314 ft 291 kts 142°
2026-05-08 04:16 -33.60963 151.26788 7907 ft 289 kts 142°
2026-05-08 04:17 -33.62430 151.28419 7506 ft 284 kts 142°
2026-05-08 04:17 -33.63848 151.29986 7126 ft 278 kts 142°
2026-05-08 04:17 -33.65258 151.31533 6809 ft 271 kts 143°
2026-05-08 04:17 -33.66652 151.33056 6491 ft 270 kts 143°
2026-05-08 04:18 -33.68043 151.34570 6158 ft 268 kts 143°
2026-05-08 04:18 -33.68951 151.35571 6036 ft 264 kts 143°
2026-05-08 04:18 -33.70821 151.37279 6025 ft 240 kts 156°
2026-05-08 04:18 -33.72253 151.38237 5793 ft 230 kts 158°
2026-05-08 04:19 -33.73598 151.39142 5551 ft 220 kts 158°
2026-05-08 04:19 -33.74491 151.39752 5373 ft 216 kts 158°
2026-05-08 04:19 -33.75792 151.40646 5127 ft 214 kts 158°
2026-05-08 04:19 -33.77083 151.41529 4881 ft 213 kts 158°
2026-05-08 04:20 -33.78373 151.42409 4620 ft 213 kts 158°
2026-05-08 04:20 -33.79668 151.43288 4429 ft 214 kts 158°
2026-05-08 04:20 -33.80959 151.44152 4302 ft 215 kts 158°
2026-05-08 04:20 -33.82307 151.44793 4170 ft 197 kts 181°
2026-05-08 04:21 -33.83538 151.44428 4053 ft 181 kts 216°
2026-05-08 04:21 -33.84357 151.43350 4052 ft 170 kts 231°
2026-05-08 04:21 -33.85021 151.42182 4011 ft 168 kts 233°
2026-05-08 04:21 -33.85667 151.41016 3932 ft 167 kts 233°
2026-05-08 04:22 -33.86311 151.39845 3814 ft 169 kts 233°
2026-05-08 04:22 -33.86955 151.38672 3605 ft 167 kts 233°
2026-05-08 04:22 -33.87604 151.37510 3382 ft 167 kts 233°
2026-05-08 04:22 -33.88246 151.36364 3085 ft 166 kts 233°
2026-05-08 04:23 -33.88896 151.35218 2973 ft 167 kts 233°
2026-05-08 04:23 -33.89549 151.34097 2762 ft 159 kts 233°
2026-05-08 04:23 -33.90194 151.33022 2444 ft 157 kts 234°
2026-05-08 04:23 -33.90704 151.31916 2217 ft 147 kts 256°
2026-05-08 04:24 -33.90950 151.30746 2041 ft 144 kts 252°
2026-05-08 04:24 -33.91233 151.29597 1849 ft 141 kts 252°
2026-05-08 04:24 -33.91511 151.28446 1671 ft 138 kts 252°
2026-05-08 04:24 -33.91767 151.27374 1467 ft 131 kts 252°
2026-05-08 04:25 -33.92010 151.26354 1307 ft 126 kts 252°
2026-05-08 04:25 -33.92252 151.25335 1134 ft 126 kts 253°
2026-05-08 04:25 -33.92494 151.24315 973 ft 126 kts 253°
2026-05-08 04:25 -33.92735 151.23295 782 ft 126 kts 252°
2026-05-08 04:26 -33.92970 151.22267 565 ft 127 kts 253°
2026-05-08 04:26 -33.93221 151.21257 452 ft 125 kts 253°
2026-05-08 04:26 -33.93458 151.20250 308 ft 126 kts 255°
2026-05-08 04:26 -33.93699 151.19227 133 ft 127 kts 254°
2026-05-08 04:27 -33.93934 151.18228 37 ft 114 kts 255°
2026-05-08 04:27 -33.94095 151.17530 29 ft 46 kts 254°
2026-05-08 04:27 -33.94143 151.17301 28 ft 21 kts 277°
2026-05-08 04:27 -33.94063 151.17249 29 ft 9 kts 346°
2026-05-08 04:28 -33.94019 151.17237 29 ft 0 kts 348°
2026-05-08 04:28 -33.94017 151.17237 29 ft 1 kts 348°
2026-05-08 04:28 -33.93998 151.17234 29 ft 4 kts 358°
2026-05-08 04:28 -33.93965 151.17254 29 ft 7 kts 46°
2026-05-08 04:29 -33.93946 151.17330 27 ft 12 kts 75°
2026-05-08 04:29 -33.93919 151.17444 27 ft 15 kts 74°
2026-05-08 04:29 -33.93889 151.17571 29 ft 17 kts 73°
2026-05-08 04:29 -33.93849 151.17700 29 ft 12 kts 72°
2026-05-08 04:30 -33.93787 151.17762 30 ft 13 kts 21°
2026-05-08 04:30 -33.93696 151.17798 30 ft 15 kts 14°
2026-05-08 04:30 -33.93606 151.17822 30 ft 13 kts 11°
2026-05-08 04:30 -33.93566 151.17785 30 ft 7 kts 276°
2026-05-08 04:31 -33.93563 151.17760 30 ft 0 kts 279°